Location: Bratislava
(48.1517°N, 17.1093°E)
Time: 23:48:37
(UTC+02:00)

Envisat - Visible Passes

Search period start: 26 March 2023 00:00
Search period end: 05 April 2023 01:00
Orbit: 763 x 765 km, 98.2° (Epoch: 26 March)

Date Brightness Start Highest point End Pass type
(mag) Time Alt. Az. Time Alt. Az. Time Alt. Az.
26 Mar 4.4 04:15:53 10° NNE 04:20:31 35° E 04:25:08 10° SSE visible
26 Mar 3.7 05:54:55 10° N 05:59:31 35° WNW 06:04:05 10° SW visible
27 Mar 5.5 03:39:46 10° NE 03:43:04 17° E 03:46:21 10° SE visible
27 Mar 2.9 05:17:31 10° N 05:22:36 71° WNW 05:27:37 10° SSW visible
28 Mar 3.6 04:40:27 10° NNE 04:45:29 57° E 04:50:28 10° S visible
29 Mar 4.8 04:03:50 10° NE 04:08:10 28° E 04:12:29 10° SSE visible
29 Mar 3.4 05:42:31 10° N 05:47:19 44° WNW 05:52:06 10° SW visible
30 Mar 5.7 03:28:10 10° ENE 03:30:38 13° E 03:33:05 10° ESE visible
30 Mar 3.0 05:05:13 10° NNE 05:10:20 88° WNW 05:15:25 10° SSW visible
31 Mar 4.0 04:28:17 10° NNE 04:33:09 45° E 04:38:00 10° S visible
01 Apr 5.2 03:51:50 10° NE 03:55:46 22° E 03:59:40 10° SE visible
01 Apr 3.2 05:30:08 10° N 05:35:06 55° WNW 05:40:02 10° SSW visible
02 Apr 5.9 03:17:31 10° ENE 03:18:10 10° E 03:18:49 10° E visible
02 Apr 3.2 04:52:57 10° NNE 04:58:03 74° ESE 05:03:07 10° S visible
03 Apr 4.4 04:16:08 10° NNE 04:20:48 35° E 04:25:26 10° SSE visible
03 Apr 3.7 05:55:12 10° N 05:59:46 35° WNW 06:04:19 10° SW visible
04 Apr 5.5 03:39:58 10° NE 03:43:20 18° E 03:46:42 10° SE visible
04 Apr 3.0 05:17:47 10° N 05:22:51 69° WNW 05:27:53 10° SSW visible
